RH
93 89 84 81 78 75 71 66 63 61 61 61 62 62 62 60 59 57 56 55 54 53 52 52 51 51 51 50 50 53 57 61 63 65 67 70 72 74 76 77 78 79 80 82 83 84 86 86 87 88 89 89 88 88 88 88 88 88 88 88 89 88 86 86 87 88 87 87 87 88 90 90 90 90 92 93 92 91 92 88 88 89 89 89 89 88
90 87 82 79 76 73 69 65 64 64 64 64 63 62 61 59 58 56 55 55 54 54 53 53 53 52 52 52 52 54 58 62 64 66 68 70 72 74 75 77 78 79 80 81 82 83 84 85 86 87 87 87 87 87 87 87 87 87 88 88 88 88 88 88 87 87 86 86 87 88 89 91 92 93 92 91 91 91 92 89 88 88 87 89 90 90
91 88 85 82 79 76 73 70 69 68 68 66 64 62 60 58 57 56 55 55 55 55 55 54 54 53 54 54 55 56 60 63 65 67 68 70 71 73 74 75 77 78 80 81 82 83 83 84 84 85 86 86 86 87 87 87 87 87 88 88 87 86 87 88 88 87 86 87 88 89 89 90 91 92 91 90 91 91 90 90 91 91 90 91 91 90
91 89 86 82 80 77 76 75 73 71 69 67 64 61 59 58 57 56 56 56 56 56 55 55 55 56 56 57 57 58 60 64 66 67 68 69 71 72 73 74 76 77 79 80 81 81 82 82 82 83 84 85 85 86 86 85 85 86 87 87 86 86 87 87 87 87 86 87 88 88 89 89 90 91 91 91 91 91 91 92 93 93 92 92 90 89
88 86 84 81 78 76 75 74 73 70 67 64 61 59 57 57 56 56 56 56 56 56 56 56 57 58 58 59 59 59 60 64 65 66 66 67 68 69 71 72 73 75 76 76 77 78 79 79 80 81 82 83 83 84 84 84 84 84 84 84 84 85 86 86 86 86 86 87 87 88 88 89 89 90 90 90 90 90 91 91 91 91 91 91 90 88
86 84 81 79 77 74 73 71 69 65 62 59 57 56 56 55 56 56 56 56 57 57 58 58 58 59 60 60 59 59 60 62 62 62 63 63 64 66 67 68 70 71 72 73 74 75 76 78 79 81 81 82 82 83 83 84 84 85 84 84 84 84 85 86 86 86 86 87 87 88 88 88 89 89 89 90 90 91 91 91 91 91 92 90 89 87
87 84 81 78 75 72 69 66 63 60 58 56 55 55 55 55 56 56 57 58 58 58 58 58 59 60 60 60 58 57 57 57 57 57 59 61 63 64 66 67 68 70 71 72 73 75 77 78 80 81 81 82 82 83 83 83 84 85 85 85 85 85 86 86 86 86 87 87 88 88 88 88 88 89 89 89 89 90 90 90 90 90 91 90 89 88
86 83 79 75 71 67 65 62 59 57 56 55 54 55 55 56 57 58 58 58 58 58 58 59 59 59 59 57 56 55 55 55 55 56 57 60 63 64 66 67 69 70 72 73 75 76 77 78 78 79 79 79 79 79 79 80 81 81 82 82 82 83 84 85 85 85 86 86 87 87 87 87 87 87 87 87 87 88 88 89 89 89 90 89 88 87
85 81 76 71 67 64 62 59 57 56 55 55 55 56 57 58 59 59 58 58 58 58 58 58 58 57 56 55 54 54 54 54 55 56 60 63 65 66 66 68 70 71 72 73 74 74 75 75 75 75 75 75 75 75 75 76 76 76 77 78 79 80 81 81 82 82 83 83 84 84 85 85 85 85 86 86 87 87 88 88 89 90 91 89 88 88
82 77 71 66 63 60 58 57 56 55 55 55 56 57 58 59 59 59 59 58 58 58 58 57 56 55 54 53 54 54 54 53 54 57 62 65 66 67 67 67 68 68 69 70 70 71 71 71 71 71 72 72 72 72 73 73 74 74 75 76 77 78 79 79 79 80 81 82 82 83 83 84 85 86 86 87 88 88 89 90 90 91 92 89 89 89
75 70 65 62 59 58 56 56 55 56 56 57 58 59 59 58 58 58 58 58 57 57 56 55 54 54 54 54 55 54 53 53 55 58 62 64 64 64 64 64 64 65 65 66 67 67 68 68 69 69 70 70 71 72 72 73 73 74 75 75 76 77 78 79 80 81 82 82 82 83 83 84 85 86 87 88 88 88 89 90 91 92 93 91 91 91
66 63 60 59 57 56 55 55 55 56 57 58 59 59 58 56 56 55 56 56 56 55 55 55 54 54 55 56 56 55 53 55 58 62 64 64 64 63 62 62 62 62 62 63 64 64 65 65 66 68 69 69 70 71 72 73 73 73 73 74 75 76 77 78 79 80 80 81 81 82 83 84 85 86 87 88 88 88 89 89 89 90 91 90 91 92
61 59 58 57 56 56 56 55 56 56 57 57 57 56 54 54 54 54 55 55 55 55 55 55 55 56 56 56 56 55 56 60 63 64 65 64 64 63 63 62 62 62 62 63 63 63 63 63 64 66 67 68 68 69 69 70 70 71 71 72 73 74 75 76 77 78 78 79 80 81 82 84 85 86 87 87 88 88 89 89 89 89 90 90 91 91
60 59 58 57 57 57 57 56 56 56 55 54 54 53 53 54 54 54 55 55 55 55 56 56 57 57 57 56 55 56 60 63 64 65 65 64 64 64 64 64 64 64 64 64 64 63 63 64 64 64 64 64 64 63 63 64 65 68 70 71 72 74 75 76 77 78 79 79 80 81 83 84 85 86 87 87 88 88 89 89 90 89 90 90 91 91
60 59 58 58 58 58 58 57 56 54 53 53 53 53 54 54 55 55 55 56 56 57 58 58 59 59 58 56 57 59 63 64 64 65 65 65 66 66 66 67 66 66 65 65 65 64 63 64 64 63 63 63 62 62 63 65 67 70 71 73 74 75 76 77 78 79 80 80 81 82 83 84 85 86 86 87 87 88 88 89 89 90 89 91 91 91
60 59 59 59 59 58 57 56 54 53 53 54 54 55 55 55 55 56 56 58 59 60 61 62 62 61 59 58 60 62 63 64 64 66 67 68 68 69 69 70 69 68 67 67 66 65 64 64 64 63 63 63 62 63 65 68 70 71 73 74 75 76 77 78 79 79 80 80 80 81 82 82 83 84 84 85 86 87 88 89 89 90 90 90 91 92
61 61 61 61 61 59 57 55 54 54 55 55 56 56 56 56 57 58 59 61 62 64 64 64 65 66 64 63 63 64 64 65 66 68 70 72 72 72 72 72 71 69 68 67 66 66 64 64 64 63 63 62 63 64 67 69 71 72 73 74 75 75 75 76 76 77 77 78 79 79 80 80 81 81 82 83 84 86 87 88 89 89 89 90 90 91
63 63 63 63 62 60 58 57 56 56 57 57 57 57 57 57 59 60 62 63 65 67 68 67 68 69 69 67 66 65 65 67 69 71 74 75 75 74 73 72 71 70 69 68 67 66 65 65 64 63 63 63 64 66 69 69 70 71 71 71 72 72 73 73 74 75 76 77 78 78 79 80 81 81 82 83 84 85 86 87 87 88 88 89 89 90
64 64 63 63 62 60 59 58 58 58 58 58 58 58 59 61 63 64 65 67 68 69 70 71 71 70 70 69 67 67 67 70 72 75 77 78 77 75 73 72 71 71 70 70 68 67 66 65 64 64 63 62 63 65 67 68 68 69 69 70 71 72 73 74 75 75 76 77 78 80 81 82 83 84 85 85 85 85 85 86 86 87 88 89 89 89
66 65 63 61 59 58 57 57 58 58 59 60 61 62 64 67 68 69 70 70 70 69 69 70 71 71 70 69 69 69 71 74 77 79 79 78 76 74 72 72 71 71 71 70 69 67 66 65 64 63 62 61 61 63 65 67 68 69 71 72 72 73 74 75 76 77 78 79 80 81 82 83 84 84 85 85 84 83 84 85 85 86 87 87 88 87
67 65 62 59 57 57 58 59 60 61 62 64 65 67 69 70 71 72 72 72 71 70 69 70 71 70 70 72 75 78 79 81 81 81 79 76 74 73 72 72 71 71 71 69 68 67 66 65 64 63 62 61 62 64 67 68 69 70 72 73 73 74 75 76 78 79 80 80 81 82 82 83 83 84 85 85 86 86 85 86 86 86 87 87 87 87
66 64 62 61 60 61 62 63 64 65 66 67 68 69 70 70 72 73 73 73 74 75 76 76 79 84 89 93 92 88 82 81 80 79 78 76 75 74 72 71 70 70 69 68 67 66 65 65 64 63 62 62 63 65 67 68 69 71 72 73 75 76 77 78 79 81 81 82 82 83 84 84 84 85 85 86 86 86 86 86 86 86 86 87 87 87
68 68 66 65 65 65 66 67 67 68 68 69 69 70 71 71 73 74 74 76 79 84 91 95 95 93 90 87 82 79 77 76 76 76 77 77 75 73 70 70 69 69 69 68 67 66 65 64 64 63 62 62 63 65 68 70 71 72 73 75 77 78 79 80 80 80 81 81 82 82 82 83 83 84 85 85 85 85 85 86 86 85 85 87 87 87
72 71 71 70 69 69 69 69 69 69 69 69 70 70 70 71 72 73 74 76 80 86 93 91 88 85 83 81 79 77 75 74 73 74 75 74 73 71 69 69 69 69 69 68 67 66 65 65 64 64 64 63 64 65 68 69 69 70 71 75 78 79 80 80 80 79 79 80 80 80 81 82 82 83 84 84 84 84 84 85 85 85 85 86 86 86
73 73 73 72 72 73 73 73 73 73 73 73 72 72 71 72 75 77 78 78 81 85 90 89 86 84 81 80 78 76 74 73 72 72 72 72 71 70 69 68 68 68 68 67 67 66 66 66 66 65 65 65 65 66 66 66 66 66 70 75 77 78 78 79 79 79 79 80 80 80 81 82 83 83 84 83 83 84 85 85 85 85 86 86 86 85
68 67 69 71 73 75 77 78 79 79 78 77 75 75 75 77 79 81 84 86 87 89 89 88 86 82 80 78 76 75 73 72 72 71 71 71 71 70 69 69 69 68 68 68 68 67 68 68 68 68 68 67 66 66 65 65 66 69 73 75 76 76 77 77 78 79 80 81 81 82 83 83 83 83 84 84 84 84 84 85 85 85 85 85 85 85
68 68 69 72 75 77 79 80 80 80 79 79 79 79 81 82 85 88 92 91 90 90 89 88 85 81 79 77 75 74 73 73 73 73 73 73 73 73 72 71 70 70 70 70 70 69 69 69 69 69 69 67 66 66 65 66 70 73 75 75 74 74 73 75 76 79 81 82 83 83 83 83 83 83 83 84 84 84 84 84 84 84 84 84 85 84
76 77 78 79 81 83 85 85 84 83 81 82 82 83 84 86 89 91 93 90 89 89 89 88 85 82 78 76 75 74 74 75 75 75 75 75 75 75 73 72 72 71 71 71 71 71 70 70 69 69 68 67 67 67 67 68 70 72 72 72 71 70 71 72 75 79 80 81 82 82 82 82 82 82 83 83 83 83 84 84 83 83 83 83 84 84
75 76 77 79 81 84 86 87 85 84 83 85 86 86 86 87 89 90 90 89 89 90 90 88 85 82 80 78 77 76 76 76 76 76 75 75 75 74 73 72 72 72 72 72 72 71 70 70 69 68 68 67 67 68 68 69 69 70 70 70 70 71 71 73 75 78 80 81 81 82 82 82 82 82 82 82 82 82 82 82 82 82 82 82 83 83
71 71 70 71 73 75 78 79 79 79 81 84 87 88 88 88 89 90 91 91 92 93 91 88 85 83 81 80 79 78 77 75 74 74 73 73 73 73 73 73 73 73 74 74 74 73 71 70 69 68 68 68 68 69 70 71 72 72 73 72 73 73 73 73 75 77 79 80 81 81 81 81 81 81 81 81 81 81 81 81 81 82 82 82 82 82
72 70 70 70 70 71 73 73 73 74 76 79 81 84 86 86 88 89 90 90 92 92 91 89 87 85 84 83 82 80 78 75 74 74 74 75 75 75 75 76 76 76 76 76 76 76 74 71 69 68 69 71 72 73 74 74 75 75 74 74 74 73 73 73 74 76 77 78 79 79 79 79 79 80 80 80 80 81 81 81 82 82 82 82 82 82
77 77 78 77 76 74 73 73 72 71 71 72 73 75 77 79 82 84 86 87 89 89 90 89 88 87 86 85 84 82 80 78 78 78 79 79 80 80 79 79 79 78 77 78 79 80 79 74 72 72 74 75 76 76 76 76 75 75 75 74 74 74 73 73 74 75 75 75 76 77 78 79 79 79 80 80 80 80 81 81 81 81 81 81 82 82
79 79 79 78 77 75 73 71 70 69 69 69 69 70 71 73 75 78 80 82 84 86 87 88 88 88 87 86 85 83 81 81 81 82 83 83 83 82 81 81 81 81 81 81 81 82 82 79 77 76 76 76 76 76 76 76 75 75 74 74 73 73 73 73 74 74 74 74 75 76 77 78 78 79 79 80 80 81 81 81 81 81 81 81 83 84
79 79 77 76 74 73 71 70 69 68 68 69 69 70 71 72 74 75 78 80 81 83 85 86 87 88 88 87 86 85 82 83 84 84 85 85 86 86 85 85 85 85 85 83 83 82 82 81 79 78 77 76 76 76 77 76 76 75 74 73 73 73 73 74 75 75 76 76 77 77 77 77 78 78 78 79 79 80 80 81 81 81 82 83 84 85
81 79 76 74 72 70 69 68 68 69 70 70 71 72 73 73 74 75 77 78 80 81 82 83 85 87 88 89 88 87 85 86 86 87 87 88 89 89 89 88 87 87 87 86 85 83 81 80 79 79 78 77 76 76 77 76 75 74 73 73 73 74 74 75 76 77 78 78 79 79 79 79 79 79 78 79 79 80 81 82 82 82 82 83 83 84
81 78 75 72 70 68 68 69 70 71 72 73 73 73 73 74 75 75 76 77 78 79 81 82 83 85 87 89 90 90 89 89 90 90 90 91 92 92 91 90 89 89 89 88 87 85 83 81 80 80 79 78 76 75 75 74 74 74 74 75 75 76 77 77 78 79 79 80 81 80 80 80 80 80 80 80 81 81 82 82 82 83 83 82 82 82
78 75 72 70 68 68 70 71 72 72 73 73 74 74 74 75 75 76 77 77 78 79 81 82 83 84 86 88 90 92 93 92 92 92 92 93 93 93 93 92 92 92 91 90 89 88 86 84 82 80 79 78 76 75 74 75 75 76 76 77 77 78 79 79 80 80 80 81 81 81 81 81 81 82 81 81 81 81 81 81 81 81 81 81 81 81
74 72 70 69 70 71 73 74 74 74 74 75 75 76 76 77 77 78 79 80 82 83 84 85 85 86 88 89 90 91 92 92 92 92 92 92 93 93 93 93 93 93 93 93 92 91 89 87 83 80 78 77 76 76 77 77 77 78 78 78 79 80 80 80 80 80 80 80 81 81 81 81 82 82 81 81 81 81 81 80 80 80 80 80 80 80
71 70 70 71 73 75 76 77 78 78 78 77 78 78 79 80 81 83 84 86 87 88 88 88 88 88 89 89 89 90 90 90 90 90 90 91 92 93 93 93 93 94 93 94 93 93 93 90 86 83 80 79 77 77 77 78 79 79 79 80 80 80 80 80 80 80 80 81 81 82 82 82 82 82 82 81 81 82 82 81 81 80 80 80 80 80
70 71 72 74 76 78 79 79 80 80 79 79 80 81 81 83 84 85 86 87 87 87 87 87 87 86 87 87 87 87 87 88 88 88 89 89 91 92 93 92 93 94 94 94 94 94 94 92 90 87 85 83 82 81 80 80 80 80 81 81 80 78 78 79 80 81 81 82 82 83 83 82 82 81 81 81 81 81 81 80 80 79 79 80 80 80
72 73 75 78 80 81 83 82 81 80 80 80 81 82 83 85 86 87 86 86 86 85 85 85 85 85 85 85 86 86 87 88 89 89 89 89 89 90 91 92 93 94 94 94 94 94 94 93 91 90 88 87 85 84 83 82 81 81 82 82 81 80 80 81 81 82 82 81 81 81 81 81 81 81 81 80 80 80 79 80 80 80 80 80 80 80
75 78 80 83 84 85 85 83 82 81 82 84 85 86 86 87 87 87 87 87 87 86 87 88 88 88 87 88 88 88 89 89 89 89 88 88 88 87 87 89 91 93 94 94 94 94 94 93 92 91 89 89 88 86 84 83 82 83 83 83 82 82 81 81 80 80 80 80 81 81 81 82 81 81 80 81 81 80 80 81 81 81 82 81 81 81
78 81 83 84 85 84 82 82 83 83 85 85 85 85 86 87 87 87 88 88 87 87 87 88 89 89 89 88 88 87 88 87 87 87 86 85 85 85 84 84 86 88 92 94 94 94 93 93 93 93 92 92 92 90 87 85 84 84 83 83 83 83 81 79 79 80 81 81 82 83 83 83 82 82 81 82 82 82 82 82 81 81 82 83 83 83
83 84 84 84 84 83 82 83 84 85 86 86 85 85 85 85 86 86 87 88 88 88 89 89 89 90 90 89 88 86 85 85 84 84 84 83 83 83 82 82 83 85 89 93 94 94 94 93 92 92 92 93 93 92 89 87 85 84 83 83 84 84 83 81 81 82 83 83 83 83 83 83 83 82 83 83 82 82 82 81 81 81 81 81 82 83
87 86 84 84 84 84 84 84 84 84 84 84 84 84 84 84 85 86 87 88 88 88 89 89 89 90 88 86 85 84 83 83 83 83 83 83 82 82 82 82 82 83 86 90 93 94 94 93 92 92 92 93 94 93 90 88 87 85 84 84 84 84 84 83 83 84 84 84 84 83 83 82 82 83 84 83 83 82 82 82 81 82 82 83 84 85
84 83 82 82 82 82 82 82 83 83 83 83 83 84 84 84 84 85 86 87 87 87 87 88 89 89 87 85 84 84 84 83 83 83 83 83 83 82 82 82 81 82 83 86 89 92 94 94 94 93 93 93 92 91 89 88 87 86 84 84 84 84 83 83 83 83 84 84 84 83 83 83 84 85 86 86 84 83 83 84 84 84 85 86 87 87
82 81 81 82 82 82 82 82 83 83 84 84 84 83 83 83 84 84 85 86 87 88 88 88 89 90 89 87 86 85 85 84 84 83 83 82 82 82 82 82 81 81 81 83 85 88 90 91 92 94 94 93 91 88 86 86 86 86 85 84 84 84 83 83 83 83 84 84 84 84 84 85 86 87 87 86 85 84 83 82 82 83 83 84 85 85
83 83 83 83 84 84 85 85 85 85 85 85 84 83 83 83 84 85 87 88 88 89 90 90 89 89 87 86 85 85 85 84 84 83 83 82 82 82 82 82 82 82 82 83 84 85 87 87 88 90 92 93 91 89 86 86 86 85 85 85 85 85 84 83 83 83 84 84 84 84 84 86 87 88 87 86 85 83 80 79 79 79 79 79 80 81
84 85 86 86 87 88 88 88 87 87 87 86 86 85 85 84 85 87 88 88 88 88 88 88 88 87 86 85 85 84 84 84 84 83 83 82 82 82 82 83 83 84 84 84 85 85 86 86 87 88 90 92 93 92 89 89 88 87 87 87 87 86 86 84 83 83 83 84 84 84 84 86 88 89 89 88 86 82 79 77 76 76 76 76 77 78
85 87 88 88 88 89 89 89 89 89 89 88 88 87 87 87 87 87 87 88 88 88 89 89 88 88 87 86 85 85 84 84 84 83 83 82 82 83 83 83 84 85 86 86 85 85 85 84 82 82 82 85 88 90 90 90 89 88 87 87 86 85 84 83 82 82 82 83 83 83 84 85 86 86 87 86 83 80 78 76 75 74 74 75 75 76
87 88 89 89 89 89 90 90 90 91 90 90 90 89 89 89 89 89 88 89 89 88 88 88 88 88 87 86 85 85 84 84 84 84 83 83 83 84 84 85 86 87 89 87 84 82 79 78 76 73 72 73 76 79 82 84 85 84 83 82 81 80 80 79 79 79 79 80 81 83 84 84 83 82 80 80 79 78 76 75 74 73 73 73 74 75
Wind_Speed
14 13 11 10 10 11 12 13 13 12 12 11 10 10 9 9 10 10 11 12 13 14 14 15 15 16 16 16 16 15 15 14 14 14 14 14 14 14 14 14 15 15 15 15 15 16 16 16 17 17 17 18 18 18 18 18 18 18 18 18 18 17 18 18 18 18 18 18 18 18 18 18 19 19 19 19 19 19 20 20 20 20 20 21 21 21
14 13 13 12 12 12 13 13 13 12 11 10 10 9 9 10 10 11 12 12 13 14 14 14 15 15 15 16 15 15 14 14 13 14 14 14 14 14 14 14 15 15 15 15 15 16 16 17 17 17 17 17 17 17 17 17 17 17 17 17 17 17 18 18 18 18 18 18 18 18 18 18 18 19 19 19 19 19 20 20 20 21 21 21 21 22
14 13 13 12 12 13 13 13 13 12 11 10 10 10 10 10 11 11 12 12 13 13 13 14 14 14 14 15 15 14 13 13 13 13 14 14 14 14 14 15 15 15 15 16 16 16 16 17 17 17 17 17 17 17 17 17 17 17 17 17 17 17 18 18 18 18 18 18 18 19 19 19 19 19 19 19 20 20 20 21 21 21 21 22 22 22
13 12 12 12 12 12 13 12 12 11 10 10 10 10 10 11 11 11 12 12 13 13 13 13 13 13 14 14 14 14 13 13 13 13 14 14 14 14 15 15 15 15 16 16 16 16 16 16 16 17 17 17 17 17 17 17 17 17 17 17 18 18 18 18 18 18 19 19 19 19 19 19 19 19 20 20 20 21 21 21 22 22 22 23 23 23
12 12 12 12 12 12 11 11 10 9 9 9 9 9 10 10 11 11 12 12 12 12 12 12 12 13 13 14 14 14 13 13 13 13 13 14 14 14 15 15 15 15 15 15 16 16 16 16 16 16 16 16 17 17 17 17 17 17 17 18 18 18 18 18 18 18 19 19 19 19 19 19 19 20 20 20 21 21 22 22 22 23 23 23 24 24
11 11 11 11 11 11 11 10 9 9 9 9 9 9 9 10 10 11 11 11 11 11 11 12 12 13 13 13 13 12 12 12 12 13 13 13 14 14 14 14 14 15 15 15 15 15 15 15 16 16 16 16 17 17 17 17 18 18 18 18 18 18 18 18 18 18 18 19 19 19 19 19 20 20 20 21 21 22 22 23 23 23 24 24 25 25
10 10 9 9 10 10 10 10 10 9 9 9 9 9 9 9 10 10 10 10 10 11 11 12 12 12 12 12 11 11 11 11 12 12 13 13 13 14 14 14 14 14 14 15 15 15 15 16 16 16 17 17 17 18 18 18 18 18 18 18 18 18 18 18 18 18 18 18 18 19 19 19 19 20 20 21 21 22 22 23 23 24 24 24 25 25
9 9 9 9 9 10 10 10 10 9 9 9 9 9 9 9 9 9 9 9 10 10 11 11 11 11 10 10 10 10 11 12 13 14 14 14 14 14 15 15 15 15 15 15 15 16 16 16 16 17 17 17 18 18 18 18 18 18 18 18 18 18 18 18 18 18 18 18 18 18 18 19 19 19 20 20 21 21 22 22 23 23 23 24 24 25
9 8 9 9 9 9 9 9 9 8 8 8 9 9 9 9 9 9 9 9 9 9 9 9 10 10 9 10 10 11 12 14 15 15 15 15 15 15 15 15 15 15 15 15 15 15 15 16 16 16 17 17 17 18 18 18 18 18 18 17 17 17 17 17 17 17 17 17 17 17 18 18 19 19 19 20 20 21 21 22 22 23 23 23 24 25
9 9 9 9 9 8 8 8 8 7 7 8 8 9 9 9 9 10 9 9 8 7 7 7 8 9 10 11 12 13 15 16 16 15 14 14 14 14 14 14 14 14 14 14 14 15 15 15 16 16 17 17 17 18 17 17 17 17 17 17 17 17 16 16 17 16 16 17 17 17 17 18 18 19 19 20 20 21 21 21 22 22 23 23 24 25
9 9 8 8 8 7 7 7 7 6 7 7 8 8 8 8 9 9 9 8 6 6 7 8 9 10 11 12 14 15 17 17 17 16 14 13 13 13 13 13 13 14 14 14 14 14 15 16 16 17 17 18 18 17 17 17 17 16 16 16 16 16 16 16 16 16 16 16 16 17 17 18 18 19 19 20 20 21 21 22 22 23 23 24 24 25
9 8 7 7 6 6 7 6 6 6 7 7 8 8 8 7 6 6 6 6 7 7 8 9 9 10 11 13 15 17 18 17 17 15 14 13 13 12 12 13 13 14 14 15 16 17 17 18 18 18 18 18 17 17 17 17 17 16 16 16 16 16 15 15 15 16 16 16 17 17 18 18 19 19 20 20 21 22 22 22 23 23 24 24 25 25
8 7 6 6 6 6 6 6 6 6 7 8 8 7 6 4 3 4 5 6 7 8 9 9 10 11 12 13 15 16 17 16 15 15 14 14 13 13 13 14 15 16 17 18 19 20 21 20 20 19 19 19 18 18 18 17 17 17 16 16 16 15 15 15 15 16 16 17 17 18 19 19 20 20 21 21 22 22 23 23 23 24 24 25 25 25
7 7 6 6 6 6 6 6 6 7 7 7 5 4 3 3 4 5 6 7 7 8 8 10 11 13 14 15 15 15 14 14 14 14 14 14 14 14 14 15 16 18 19 20 21 22 22 22 21 21 21 20 20 20 19 18 18 17 16 16 16 16 16 16 17 17 18 18 19 19 20 20 21 21 22 22 23 23 23 24 24 24 25 25 25 26
7 7 6 6 5 5 5 6 6 6 5 4 3 3 4 5 5 6 6 6 7 8 9 11 13 14 14 14 13 12 11 12 13 14 15 15 15 15 15 17 18 20 21 22 23 23 23 22 22 22 22 21 21 20 19 18 17 17 17 17 17 17 17 18 18 19 19 20 20 21 21 21 22 22 22 23 23 23 24 24 24 24 25 25 25 26
6 5 5 4 4 4 5 5 5 4 3 3 3 4 5 5 5 5 5 6 7 8 10 12 13 13 13 13 11 9 9 11 13 15 16 17 17 17 17 18 20 22 23 23 23 23 23 22 22 22 21 21 20 19 18 18 17 17 17 18 18 18 19 19 20 20 20 21 21 21 22 22 22 23 23 23 24 24 24 24 25 25 25 25 26 26
5 4 3 3 4 5 5 5 4 4 4 4 4 5 5 4 4 4 5 6 7 8 9 10 9 9 10 12 11 9 9 10 13 15 18 19 19 19 18 19 20 23 24 24 23 23 23 22 22 21 21 20 20 19 18 18 18 18 19 19 19 19 20 20 20 21 21 21 22 22 23 23 23 23 24 24 24 24 24 25 25 25 25 26 26 26
4 4 4 4 5 6 6 5 5 5 5 5 5 5 5 5 5 5 6 7 7 8 8 9 9 8 8 10 11 10 10 12 14 16 19 20 21 21 20 19 20 22 23 24 23 23 22 22 21 21 20 20 19 18 18 18 19 19 19 19 20 20 20 20 21 21 22 22 23 23 23 24 24 24 24 24 24 24 25 25 25 25 25 26 26 26
4 4 5 5 6 6 6 6 6 5 5 5 5 5 5 5 5 6 7 8 8 9 9 10 10 11 11 12 13 13 12 12 14 17 19 21 22 22 21 20 20 21 22 23 23 22 22 21 21 20 20 19 19 19 19 19 19 19 19 20 20 20 21 21 22 22 23 23 23 23 24 24 24 24 24 24 24 25 25 25 25 25 25 25 26 26
3 4 4 5 5 6 6 5 5 5 5 5 5 5 6 6 7 7 8 9 9 10 11 12 12 13 13 14 14 14 13 13 15 17 19 21 22 22 20 19 19 20 22 23 22 22 21 21 20 20 20 20 20 19 19 19 19 20 20 20 21 21 22 22 22 23 23 23 23 24 24 24 24 24 24 24 24 25 25 25 25 25 25 25 26 26
4 4 4 5 5 5 5 5 5 5 5 5 6 6 6 7 8 8 9 9 10 11 12 12 13 13 13 14 14 14 15 15 16 17 19 20 21 21 19 18 18 20 22 22 22 21 20 20 20 20 21 21 20 19 19 19 20 20 21 21 21 22 22 23 23 23 23 24 24 24 24 24 24 24 24 24 24 24 25 25 25 25 25 26 26 27
7 7 6 6 6 6 6 6 6 6 6 7 7 7 8 8 8 8 9 9 10 11 12 13 13 14 14 15 16 18 18 18 18 18 18 18 20 21 19 17 17 19 20 21 21 20 20 20 21 21 22 21 20 20 20 20 20 21 21 22 22 23 23 23 23 23 23 23 23 23 24 24 24 24 24 24 24 24 25 25 25 25 25 26 26 26
8 8 8 8 8 8 8 8 8 8 8 8 8 9 9 8 8 9 9 10 11 12 14 15 16 17 17 19 20 21 20 19 18 17 16 15 18 20 18 17 17 18 20 21 21 21 21 22 22 23 23 22 21 20 20 20 21 21 22 23 23 23 23 23 23 23 23 23 23 23 23 23 24 24 24 24 24 25 25 25 25 25 25 25 26 26
7 7 7 8 8 8 9 9 9 10 10 10 10 10 10 10 10 11 12 13 14 14 15 16 18 18 19 20 20 19 18 16 15 15 14 15 17 19 18 17 17 19 20 21 21 21 22 23 24 24 23 23 21 21 21 21 22 23 23 23 23 22 22 22 22 22 23 23 23 23 24 24 24 24 24 24 25 25 25 25 25 25 25 25 26 26
7 7 8 8 9 9 10 10 10 10 11 11 11 11 11 11 11 12 13 14 15 15 15 15 16 16 17 17 16 16 15 13 12 12 13 14 17 19 19 17 17 18 20 22 22 22 22 24 24 24 23 22 22 22 23 23 24 24 23 22 22 22 22 22 22 23 23 24 24 24 24 24 24 24 24 24 24 25 25 25 25 25 25 25 26 26
9 9 9 9 10 10 10 11 11 11 11 11 11 11 11 12 12 13 14 14 14 13 13 13 13 15 15 15 15 14 13 11 10 11 12 13 15 18 19 17 17 18 20 22 22 22 22 23 23 23 22 23 23 24 24 24 23 21 21 20 21 21 22 23 24 24 25 25 25 25 24 24 24 24 24 24 24 24 25 25 25 25 25 25 26 26
9 9 9 9 10 10 10 11 11 11 12 12 12 12 12 13 13 13 13 13 12 11 11 11 12 13 14 14 14 13 13 12 11 11 12 14 16 17 19 18 18 18 20 21 22 22 21 22 23 23 23 24 25 24 23 21 19 19 19 20 21 23 24 25 25 25 25 25 24 24 24 24 24 24 24 24 24 25 25 25 25 25 25 25 25 25
7 8 8 9 9 10 10 10 11 11 11 11 11 12 12 13 13 13 13 13 12 11 11 11 11 11 12 12 13 14 14 13 13 13 14 15 15 16 18 18 18 18 19 20 21 22 22 22 23 23 24 23 23 21 20 18 18 19 21 22 24 26 27 26 25 25 24 24 24 24 24 24 24 24 24 24 25 25 25 25 25 25 25 24 24 24
7 8 8 9 9 10 10 10 11 11 11 11 11 11 11 13 14 15 15 14 13 12 12 12 12 12 12 14 15 16 16 15 15 14 14 14 14 15 16 16 15 15 16 18 21 22 21 20 20 20 20 20 19 18 18 19 20 22 24 26 27 27 26 25 24 24 24 24 24 24 24 24 24 24 24 24 24 25 25 25 25 25 24 24 23 23
11 11 11 11 11 10 10 11 12 12 12 11 11 11 11 12 14 15 15 15 14 13 13 13 13 13 13 13 13 13 12 13 11 10 10 11 12 13 15 14 14 15 15 16 15 16 18 19 18 16 16 16 17 18 20 22 23 25 26 26 26 25 25 24 24 24 24 24 24 24 24 24 24 24 24 24 24 25 25 25 25 24 24 24 24 24
14 14 13 12 11 11 11 12 12 13 12 12 12 11 11 12 14 15 15 15 14 14 13 13 13 13 13 11 8 5 6 10 9 7 8 10 12 13 15 15 16 16 15 13 9 7 10 15 17 16 15 17 20 22 23 24 24 24 24 25 25 25 25 24 24 23 23 23 23 23 23 23 24 24 24 25 25 25 25 25 24 24 23 23 23 24
14 13 13 12 12 12 12 12 12 13 13 13 12 12 12 12 13 14 14 14 14 14 14 14 14 14 13 12 9 8 9 12 12 11 11 12 14 15 16 15 16 16 15 13 11 8 6 10 17 21 21 22 23 24 24 23 23 22 23 24 25 26 25 24 24 23 24 24 24 24 24 24 24 24 24 25 25 25 25 24 24 23 23 23 23 23
13 13 12 12 12 12 12 13 13 13 13 13 12 12 12 12 12 12 13 13 13 14 14 14 14 14 14 14 15 15 16 16 15 13 12 13 14 15 15 15 15 15 15 15 15 14 12 14 19 24 25 25 24 23 23 23 22 22 23 24 25 25 25 24 23 24 24 25 25 25 25 25 24 24 24 24 24 24 24 24 23 22 22 22 23 23
12 12 12 12 12 12 13 13 12 12 12 12 11 11 11 11 11 11 11 12 12 13 14 14 15 14 15 15 15 17 18 17 15 13 12 12 13 13 14 14 15 15 15 15 15 16 16 18 20 21 23 25 25 24 23 22 22 23 23 23 24 25 25 24 24 24 25 26 26 27 26 26 26 25 25 24 24 23 23 23 22 22 22 23 23 24
12 12 12 12 12 12 12 12 11 11 10 10 9 9 9 9 10 10 11 11 12 12 13 14 15 16 16 15 15 16 17 17 15 13 12 13 13 14 15 15 15 15 14 15 15 15 16 18 20 20 20 23 25 25 23 22 22 22 22 23 23 24 25 25 26 26 26 26 26 26 27 27 26 26 25 25 24 23 23 23 23 24 24 24 24 24
12 12 12 12 12 12 11 10 10 9 8 8 8 7 8 8 9 9 10 11 12 12 13 14 15 16 17 17 18 18 19 19 18 16 15 15 15 16 16 16 16 15 15 15 15 15 16 18 19 20 20 20 22 23 24 23 22 22 23 23 24 24 25 25 26 26 26 26 26 26 26 26 26 26 26 25 25 24 24 24 25 25 25 24 24 24
12 12 12 12 11 11 10 9 8 8 7 7 7 7 8 8 9 9 10 11 12 13 13 14 15 17 18 19 20 21 22 22 21 19 18 17 17 17 17 18 18 17 16 16 16 17 17 17 19 20 19 18 18 20 23 24 24 24 24 24 24 24 25 25 25 25 25 25 26 26 26 26 26 26 26 26 26 26 26 26 26 25 25 24 24 24
12 12 11 11 10 9 9 8 8 7 7 8 8 9 9 10 10 11 12 12 13 14 15 16 17 18 18 19 20 22 23 23 23 22 21 21 21 20 20 20 20 19 18 17 17 18 17 17 16 16 17 18 20 21 23 24 25 25 26 26 25 25 25 24 24 24 24 24 25 26 26 26 26 27 28 28 28 27 27 27 26 25 24 24 24 24
11 11 11 10 9 8 8 8 8 8 9 9 9 10 10 10 11 12 12 13 14 15 16 17 17 18 19 20 21 22 22 23 24 24 23 23 23 23 22 22 21 21 21 20 19 19 18 18 17 16 16 18 21 23 24 24 24 25 26 27 26 25 24 23 22 23 24 25 26 26 27 27 27 27 28 28 27 26 26 26 26 25 24 24 24 24
11 11 10 9 8 8 8 8 9 9 9 9 9 10 10 11 12 12 13 13 14 14 15 15 16 18 19 19 20 21 22 22 23 23 23 23 24 24 24 23 23 23 22 21 21 20 20 20 20 20 20 20 21 23 24 24 24 24 25 25 25 25 25 24 23 24 25 25 26 27 27 27 27 27 26 26 26 26 26 26 26 26 25 25 24 25
11 10 9 9 8 8 8 8 8 9 9 9 10 11 11 12 12 13 14 14 14 14 14 15 16 17 18 19 20 20 21 21 22 22 22 23 23 24 24 24 24 24 22 22 21 21 21 21 21 22 22 22 22 24 25 25 25 25 24 23 24 26 28 27 25 25 24 25 25 25 26 26 26 26 26 26 27 27 27 27 27 27 27 26 25 25
10 9 9 9 9 9 9 9 9 9 10 10 11 11 12 12 12 13 13 14 14 14 14 15 16 17 18 19 19 19 19 19 20 21 21 21 22 22 23 24 24 24 23 22 22 22 22 22 22 22 23 22 22 23 24 26 26 25 24 24 25 27 28 27 25 23 23 24 25 25 26 26 27 27 27 27 27 28 28 27 27 27 26 25 25 25
9 9 9 9 9 9 9 9 10 10 11 11 12 12 12 12 12 13 13 14 14 15 15 15 16 16 17 18 19 19 19 19 19 19 19 20 20 20 21 22 23 23 23 23 22 22 23 23 23 23 23 23 22 23 25 26 27 26 25 24 24 24 23 25 25 24 24 25 26 26 26 27 27 28 28 28 28 28 27 27 27 27 25 25 25 26
9 9 9 9 9 9 10 10 10 11 11 12 12 12 12 12 13 13 14 14 15 15 15 15 16 16 17 17 18 19 19 18 18 17 17 17 18 18 19 20 21 22 23 23 23 22 22 23 23 23 23 23 23 23 25 26 26 26 26 25 24 23 23 25 27 27 27 27 27 27 27 28 28 29 29 28 28 27 27 26 26 25 25 25 25 26
9 9 9 9 9 9 10 10 11 11 11 12 12 13 13 13 13 13 14 15 15 15 15 15 15 15 15 16 17 17 18 17 17 16 16 16 16 17 17 19 20 21 22 23 23 23 23 22 23 23 23 22 23 23 25 25 26 26 27 26 25 25 26 27 27 27 27 27 28 28 28 29 29 29 28 28 27 27 26 26 25 25 25 25 25 25
9 9 9 9 10 10 11 11 11 12 12 13 13 13 13 13 13 14 14 15 16 16 16 15 15 14 15 16 17 17 17 17 17 17 16 16 16 16 17 17 19 20 21 23 24 24 24 24 24 24 24 23 23 24 25 25 25 26 27 27 26 25 26 27 27 26 27 27 28 28 29 29 28 27 26 27 27 27 26 25 24 24 24 24 24 24
9 9 10 10 11 11 12 12 12 12 13 13 13 14 14 14 14 14 15 15 15 15 16 15 15 15 16 17 17 17 17 18 18 18 17 17 17 17 17 18 18 19 21 22 23 24 25 26 26 26 24 23 24 25 26 26 25 25 26 26 26 25 25 26 27 26 26 26 27 28 29 28 27 26 26 26 26 25 25 24 23 23 23 23 24 24
9 10 10 11 12 12 12 12 12 13 13 14 14 14 14 14 14 14 15 15 15 15 15 15 15 16 16 17 17 17 17 18 18 18 18 18 18 18 18 18 19 19 20 22 23 24 25 27 28 28 27 25 25 25 27 26 26 25 25 25 25 25 26 27 27 27 26 26 27 28 28 27 25 24 24 25 25 25 26 25 25 24 24 24 24 24
10 10 11 12 12 13 13 13 13 13 13 14 14 15 15 15 14 14 15 15 15 15 15 15 16 16 17 17 18 18 18 18 18 19 19 18 18 18 18 18 19 19 20 21 22 23 24 25 26 27 27 27 26 26 27 27 26 26 25 25 24 24 25 27 27 27 26 26 26 27 26 25 24 23 23 23 24 26 27 27 27 26 25 24 24 24
10 11 11 12 12 13 13 14 14 14 14 14 15 15 16 16 16 16 16 16 15 15 16 16 16 17 17 18 18 18 18 18 18 19 19 18 18 18 18 18 18 18 18 19 19 19 20 21 22 23 23 24 25 26 27 27 26 26 25 24 24 24 25 26 26 26 25 25 24 24 24 24 23 22 22 22 24 26 28 28 27 26 25 24 24 24
11 11 11 12 13 13 14 14 14 14 15 15 16 16 16 16 16 16 15 15 16 16 16 16 17 17 17 18 18 18 18 18 18 19 19 19 18 18 18 18 17 17 16 16 17 17 16 16 17 19 20 20 20 22 24 25 25 25 25 25 25 24 24 25 25 25 24 24 23 23 23 23 23 22 22 23 24 26 26 27 27 26 25 24 23 24
Wind_Direction
176 174 171 174 179 185 192 197 202 206 212 219 227 233 237 240 243 247 252 258 263 269 274 279 283 285 287 287 288 289 291 291 291 291 290 289 289 288 287 286 286 285 285 285 285 285 284 284 284 283 283 283 283 282 282 282 282 282 282 282 282 282 281 281 281 282 282 282 283 283 284 283 283 283 283 284 283 281 279 279 279 279 279 279 278 278
167 168 170 176 184 190 196 200 205 211 216 223 228 232 234 237 241 246 252 258 264 269 274 279 282 284 285 287 289 291 293 293 293 292 291 291 290 289 288 287 286 286 286 285 285 285 285 284 284 284 283 283 283 282 282 282 282 282 282 282 282 282 282 281 281 282 282 282 283 283 283 284 284 284 283 283 282 282 281 280 279 279 278 278 277 277
168 172 177 183 190 198 202 207 212 217 221 225 228 231 235 240 245 251 257 262 268 272 276 279 281 283 285 288 291 294 295 295 293 292 292 291 290 289 288 287 287 286 286 285 285 285 284 284 284 284 283 283 282 282 282 282 282 282 282 282 282 282 282 282 282 282 282 283 283 283 283 283 283 283 283 282 282 281 280 279 278 277 277 277 276 276
173 177 183 187 195 204 211 215 218 222 226 228 230 234 239 245 252 258 263 267 271 275 277 279 281 283 285 289 293 296 297 296 294 293 292 292 291 290 289 288 287 286 286 286 285 284 284 284 284 284 283 283 283 283 283 282 283 283 282 283 283 283 283 283 283 283 283 283 282 283 282 282 282 283 283 282 282 281 280 279 278 277 277 277 276 276
175 179 183 187 195 205 215 220 223 223 225 228 232 237 244 251 258 264 269 272 274 276 279 281 282 284 286 290 294 297 298 296 295 295 295 295 294 292 292 291 290 289 288 287 286 286 285 285 285 284 285 284 284 284 284 284 284 284 284 284 284 284 283 283 283 283 283 283 283 282 282 282 282 282 282 281 281 280 279 278 278 277 277 277 276 276
174 180 184 189 195 203 210 216 217 218 220 226 234 242 251 258 264 268 272 274 276 278 280 282 284 286 288 292 297 300 299 297 297 298 299 298 297 296 295 294 293 291 290 289 288 287 287 286 286 286 286 286 286 286 286 285 285 285 284 284 284 284 284 284 283 283 283 283 282 282 282 281 281 280 280 279 279 278 278 277 276 276 276 275 275 275
175 183 189 196 201 205 208 211 213 217 223 231 240 249 255 260 264 267 270 273 276 278 281 283 285 288 292 296 301 303 300 299 299 300 301 300 300 298 297 295 294 293 291 290 289 288 288 288 288 288 287 287 287 287 287 287 286 285 285 285 285 284 284 284 284 284 283 283 282 282 281 280 280 279 279 278 277 277 276 276 276 275 275 275 275 274
180 188 195 201 205 207 210 214 219 225 233 240 245 248 252 255 258 261 266 270 274 278 282 285 289 292 296 300 302 302 300 299 299 300 300 300 300 298 297 295 294 292 291 290 289 289 288 289 289 290 290 290 290 290 290 289 288 287 286 286 285 285 285 284 284 284 283 282 282 281 280 279 279 278 278 277 277 276 276 276 276 276 276 275 275 275
189 195 198 201 202 204 211 221 230 237 241 243 243 242 244 249 255 261 267 272 276 280 285 290 293 296 298 299 299 299 299 300 302 302 302 301 299 298 297 295 294 292 291 290 289 289 290 291 292 293 294 294 294 293 292 291 290 289 288 287 286 285 285 284 284 283 283 282 281 280 279 279 278 277 277 277 277 277 276 276 276 276 276 276 276 276
199 200 202 204 207 212 220 231 238 240 239 238 239 241 246 252 260 266 271 275 279 285 290 294 297 299 299 299 299 300 302 304 306 306 305 301 299 298 297 296 295 294 293 292 292 293 293 294 295 296 296 296 296 295 294 293 292 291 290 289 288 286 285 284 284 283 282 281 281 280 279 278 278 278 278 278 278 278 277 277 277 277 277 277 276 276
206 206 207 210 217 226 234 239 239 235 232 233 238 245 253 259 264 266 269 275 284 293 296 297 298 300 303 304 304 305 308 310 311 311 309 305 303 300 299 298 296 295 294 294 294 294 294 295 296 297 297 296 296 296 295 295 294 293 292 290 289 287 286 285 284 283 282 281 281 280 280 279 279 279 279 279 279 278 278 278 278 277 277 277 276 276
209 208 210 215 222 229 234 236 234 230 229 231 235 242 250 255 261 269 275 288 299 305 305 303 300 300 303 307 309 310 312 313 314 314 313 311 309 306 304 301 297 294 292 292 291 291 292 294 295 296 295 295 295 296 296 295 294 294 292 291 289 287 286 285 284 283 283 283 282 281 281 280 280 280 280 279 279 279 278 278 277 277 277 276 276 276
210 210 214 220 224 227 228 229 229 229 229 230 232 236 243 250 267 284 295 302 306 308 308 306 305 302 302 305 309 312 314 315 314 313 312 310 308 307 305 301 297 294 292 291 291 291 292 294 295 295 295 295 295 296 296 295 295 294 292 291 289 288 286 285 284 284 284 283 283 282 282 281 281 280 280 280 279 279 278 278 277 277 277 276 276 276
214 217 220 223 225 226 228 232 234 234 232 231 231 237 254 279 295 301 303 301 301 302 302 304 307 308 307 308 311 314 315 314 312 310 308 306 304 303 301 299 296 294 293 293 293 294 295 296 297 297 298 298 298 299 299 298 297 294 292 290 288 287 286 286 285 284 285 284 284 283 282 281 281 280 280 279 279 278 278 278 277 277 277 277 276 276
217 219 220 220 222 227 234 240 243 242 238 235 242 259 278 292 298 300 299 300 300 302 303 307 310 311 309 310 313 316 315 312 309 307 305 302 299 298 298 298 297 295 295 295 296 297 299 299 300 300 301 302 302 302 301 299 296 294 291 289 288 287 286 286 285 285 284 284 284 283 282 281 281 280 280 279 279 279 279 278 278 278 278 277 277 277
220 220 220 225 232 240 247 253 253 250 248 256 270 283 295 299 297 294 295 301 306 310 315 318 318 314 310 310 313 315 314 312 309 306 304 300 297 296 298 300 299 298 297 297 297 299 301 302 302 303 303 304 304 303 300 297 294 292 290 289 288 287 287 286 286 286 285 285 284 284 283 282 282 281 281 280 280 279 279 279 279 278 278 278 277 277
220 224 233 248 257 260 260 262 263 265 268 276 282 286 288 288 288 290 295 303 310 316 317 316 314 310 307 308 308 310 313 312 309 306 303 300 297 297 300 300 300 298 298 298 298 299 301 303 304 304 305 304 304 302 298 295 293 292 291 290 289 289 288 288 288 287 287 286 286 285 285 284 284 283 283 282 281 281 280 280 279 279 279 279 278 278
224 231 242 252 257 260 262 265 268 272 275 277 277 274 271 272 278 289 298 305 312 314 311 305 299 295 295 298 301 304 310 310 307 305 302 299 298 299 302 301 299 297 296 297 298 300 301 303 304 305 304 303 301 298 296 294 293 292 292 292 291 291 290 290 290 289 289 288 288 287 287 286 285 284 284 283 283 282 281 281 280 280 280 279 279 279
226 234 241 247 252 256 260 264 268 272 272 269 265 264 265 271 280 290 299 304 306 304 298 291 286 283 284 285 291 298 304 306 305 304 302 299 298 300 302 301 298 296 294 294 297 300 302 303 304 304 303 302 300 297 295 294 294 293 293 293 293 293 293 292 292 291 291 290 290 289 288 287 286 285 285 284 283 283 282 282 281 281 280 280 279 279
232 241 253 263 268 267 264 263 263 262 261 259 258 261 269 278 286 293 298 300 298 293 287 281 277 276 280 283 289 294 298 302 304 304 300 297 296 298 300 300 297 294 293 294 297 300 302 303 304 304 303 302 300 297 296 295 295 295 295 295 295 295 295 295 294 294 293 292 291 291 289 288 287 286 285 284 284 283 283 282 282 281 281 280 280 279
249 256 265 278 287 287 280 269 262 258 257 259 263 269 277 284 289 292 293 293 291 287 283 278 276 277 282 285 287 290 293 299 302 301 298 296 294 295 297 298 296 294 293 294 297 300 301 302 302 301 301 300 299 297 296 295 295 295 296 297 297 297 297 297 296 296 295 294 293 292 291 290 288 287 286 285 284 283 283 282 282 282 281 281 281 280
259 262 267 274 281 284 282 275 268 264 264 267 271 277 281 284 285 285 285 286 286 286 285 284 283 285 287 289 288 288 289 292 293 292 292 292 291 292 295 298 297 294 293 294 297 299 300 299 299 298 298 298 297 296 295 295 296 296 297 298 299 299 299 298 298 297 297 295 294 293 292 290 289 288 287 286 285 284 284 283 283 282 282 282 281 281
262 263 267 270 273 274 275 273 270 269 268 270 273 276 278 279 280 281 282 283 284 285 286 288 290 291 291 291 290 289 289 289 287 284 283 283 286 290 296 299 298 295 292 294 297 299 300 298 297 297 297 297 296 296 295 296 296 298 298 299 300 300 300 299 299 299 298 297 296 295 294 292 291 290 289 288 287 286 285 284 284 283 283 282 282 281
256 259 261 264 266 269 271 272 273 273 274 274 275 276 277 276 276 277 280 282 283 284 286 289 291 291 291 291 291 291 290 290 287 281 276 277 282 288 294 298 298 295 293 295 297 299 299 298 297 297 297 297 297 296 295 296 298 299 300 301 301 301 301 301 301 301 300 299 298 297 296 295 293 292 291 290 289 288 287 286 285 284 284 283 282 282
255 258 259 261 264 268 272 275 277 277 278 279 279 278 277 276 276 277 279 280 281 283 286 289 290 290 289 290 290 290 291 291 287 280 274 278 283 287 292 296 297 296 295 296 298 299 299 298 297 298 297 296 295 295 296 298 300 301 302 302 302 302 302 303 303 302 302 301 300 299 298 297 295 294 293 292 290 289 288 287 287 286 285 284 283 283
271 270 270 271 273 275 277 277 277 277 276 277 277 276 276 276 278 279 278 277 278 280 285 287 286 285 287 289 289 289 291 292 289 283 279 282 286 289 292 295 297 297 296 297 299 299 299 298 297 297 296 295 295 296 298 301 302 303 302 301 301 302 302 303 303 303 303 302 301 300 299 298 297 296 295 293 292 291 290 289 288 287 286 286 285 284
289 288 287 286 285 284 282 280 278 276 275 273 272 272 273 274 275 274 271 271 274 277 279 279 281 284 287 288 288 288 291 293 290 285 283 285 287 288 290 293 296 297 297 297 298 299 298 296 295 295 295 295 297 300 302 304 303 301 300 300 300 301 302 303 303 303 303 303 302 301 300 299 298 297 296 295 294 293 292 291 290 289 289 288 286 285
300 300 298 295 293 291 289 286 284 281 278 276 274 272 270 270 269 268 266 268 270 273 272 273 277 282 286 288 289 290 292 291 288 285 285 284 282 282 286 292 296 297 298 300 301 300 298 295 294 294 296 298 301 303 304 302 300 297 297 298 299 301 302 303 304 304 304 303 302 302 301 300 299 298 297 296 295 294 294 293 292 292 291 290 287 285
288 290 290 291 292 292 291 289 287 285 282 281 279 275 269 265 263 262 263 265 267 268 267 270 273 278 283 287 291 292 291 288 287 287 288 283 278 279 286 293 297 301 305 307 306 304 300 296 295 296 298 301 302 302 300 299 297 297 298 300 301 303 304 305 305 304 304 303 302 302 301 300 300 299 298 298 297 296 295 295 295 294 293 291 289 286
285 284 283 284 286 288 290 289 287 287 285 283 279 275 269 263 260 260 261 262 262 262 264 268 272 276 281 288 292 293 290 289 291 295 296 290 285 286 293 298 302 305 310 313 312 307 303 300 299 299 300 301 300 299 299 299 299 300 301 302 303 304 305 305 305 304 304 303 302 302 301 301 300 300 299 299 298 297 297 296 296 296 294 292 289 287
297 295 294 292 291 291 290 289 287 286 284 281 277 272 267 262 260 260 260 260 259 258 261 265 269 273 277 283 289 290 287 289 294 302 301 300 295 294 298 301 302 303 307 309 309 307 306 304 303 302 302 302 301 301 301 301 302 302 303 303 303 303 304 305 305 304 304 303 302 302 301 301 300 300 299 298 298 297 297 296 296 295 294 292 289 287
302 301 300 300 298 295 291 288 285 283 280 278 275 271 267 263 261 260 259 259 258 258 259 263 266 270 272 272 272 272 277 283 289 295 298 299 295 293 295 297 297 298 299 297 292 289 296 300 301 302 303 303 302 302 302 303 302 302 302 302 302 302 304 305 305 304 304 303 302 301 301 300 299 299 298 298 297 296 296 296 295 294 293 291 289 287
296 295 295 294 292 289 286 284 282 280 278 276 274 272 270 268 265 263 261 259 258 257 258 261 265 268 270 270 269 270 273 278 283 290 295 294 292 291 292 293 294 296 296 293 288 282 280 285 293 299 301 302 302 302 302 302 302 302 302 302 302 302 303 304 304 303 303 303 302 301 300 300 299 298 298 297 296 295 295 294 294 293 291 290 288 287
287 287 287 286 286 284 284 283 283 281 280 278 277 277 276 275 272 268 264 261 259 257 257 259 262 266 269 271 271 272 273 276 280 286 290 291 291 291 293 293 294 295 297 295 291 286 282 284 289 295 299 301 301 301 301 301 302 302 303 302 301 301 302 302 302 301 301 301 301 300 300 300 299 299 298 297 296 295 294 294 293 292 290 288 288 288
282 282 283 283 283 284 284 285 286 286 285 283 282 280 279 276 274 271 268 265 262 261 260 260 261 262 265 268 271 273 274 277 279 282 284 286 289 291 292 291 291 293 295 294 292 291 289 288 289 293 296 299 300 300 300 301 302 303 303 302 300 300 300 300 300 300 300 300 299 299 299 299 299 299 298 297 296 295 294 293 293 291 289 288 287 287
281 281 282 283 284 285 287 290 291 291 288 284 279 275 271 269 268 267 267 266 265 264 264 263 262 262 262 264 266 270 273 277 279 281 281 280 282 285 287 285 286 288 290 290 289 289 289 290 291 292 293 295 297 299 300 302 303 303 302 301 300 299 299 299 299 299 299 298 297 298 298 298 298 298 297 296 295 294 293 292 291 289 288 287 285 284
280 281 283 284 286 288 291 292 291 288 284 278 272 268 267 265 266 266 266 266 266 267 267 267 266 265 263 263 264 267 271 275 278 279 278 277 277 278 278 279 281 282 282 283 285 287 288 290 291 292 291 289 291 295 300 303 304 304 302 301 301 300 299 299 298 298 297 296 296 296 297 297 296 296 295 295 295 294 293 291 290 289 288 286 285 283
280 282 284 287 289 291 292 290 287 284 282 279 277 275 274 273 272 272 272 272 272 272 272 271 270 269 268 267 267 268 271 274 277 278 279 278 277 275 273 274 276 276 275 275 277 281 284 285 288 290 290 288 288 291 295 299 301 302 301 301 301 300 299 299 299 299 297 296 295 295 296 295 295 295 295 295 295 295 294 293 292 291 290 287 285 283
281 283 286 288 288 288 288 290 290 288 285 283 281 281 280 279 279 279 280 279 278 276 275 274 273 273 273 272 273 274 275 277 279 280 281 280 278 275 272 271 272 274 274 273 273 274 275 276 278 281 285 288 290 291 293 294 296 298 300 302 302 300 299 299 299 298 297 295 294 293 294 295 295 295 295 295 295 294 293 292 292 291 290 288 287 285
282 285 287 287 285 284 286 289 290 290 288 287 286 285 284 284 285 285 285 284 283 281 281 280 279 279 279 278 278 278 278 279 280 280 280 280 278 276 273 270 270 272 274 273 272 270 269 270 272 274 277 281 285 288 291 291 292 294 298 301 301 300 300 300 298 297 295 294 293 292 293 294 295 295 294 294 293 291 290 290 290 289 289 288 286 286
285 287 288 288 287 286 288 288 288 289 288 288 288 287 287 287 288 289 290 289 287 286 285 285 285 284 283 281 280 279 278 277 278 278 278 278 278 277 275 272 270 271 272 272 271 269 267 268 269 272 274 276 279 282 285 286 288 291 294 294 294 295 297 298 297 295 294 293 292 292 292 293 294 294 293 293 291 290 289 288 287 287 288 286 284 282
285 286 288 290 290 289 289 288 287 288 289 289 289 289 289 289 289 289 289 289 288 288 287 287 287 288 287 285 282 280 279 278 278 278 279 279 278 277 276 275 273 272 271 270 269 268 267 267 267 269 271 273 276 279 282 284 286 288 289 288 291 294 296 296 295 295 294 293 293 293 293 292 292 293 292 291 291 290 289 287 286 285 284 283 281 278
286 287 288 290 290 290 290 288 288 289 290 290 289 288 288 288 288 288 288 288 288 288 288 288 288 288 287 287 286 285 284 282 282 282 282 281 280 279 279 278 276 274 271 268 268 268 268 268 266 266 268 270 272 275 279 283 285 286 286 286 289 292 294 294 295 296 295 293 293 292 291 291 291 291 291 291 290 289 288 287 287 286 282 279 278 276
286 287 287 289 289 289 289 290 291 292 292 291 290 289 288 287 287 287 287 286 287 287 287 287 287 287 285 285 286 289 289 288 288 286 284 283 282 281 280 280 279 276 272 267 266 267 270 270 268 267 268 269 270 272 276 279 282 284 285 286 285 285 285 288 292 294 294 292 291 291 290 290 290 291 291 290 289 289 288 288 286 284 282 279 277 276
286 286 287 289 291 294 295 295 295 295 293 292 291 290 290 290 289 288 287 286 286 286 285 286 286 286 285 285 287 290 292 293 292 290 287 284 282 280 279 278 278 276 273 269 265 265 267 269 271 272 273 271 270 270 273 277 280 283 284 285 284 282 282 284 287 289 289 290 290 290 290 290 291 291 290 289 288 288 288 287 286 285 283 281 279 277
288 287 288 290 293 294 295 296 296 296 295 294 293 292 292 292 292 290 287 285 284 284 285 285 283 281 282 285 288 291 293 294 294 292 290 288 286 283 281 279 278 277 274 271 268 267 266 267 270 273 276 276 274 272 272 274 277 280 282 284 284 284 284 285 285 285 285 286 287 289 290 290 290 288 287 286 287 288 287 286 285 284 284 283 281 279
287 288 290 292 294 295 296 296 297 297 295 294 294 293 293 293 292 290 287 285 283 283 285 285 282 278 279 283 286 289 290 292 292 293 293 292 291 289 286 284 281 279 276 274 271 269 268 268 269 270 273 275 276 276 275 275 275 277 279 282 284 284 284 284 284 284 283 283 284 286 288 288 288 286 285 286 287 288 289 289 288 287 287 286 285 283
287 289 290 293 294 295 295 296 296 295 294 293 293 294 293 293 291 288 286 285 284 284 285 284 282 281 280 281 282 284 286 287 289 291 293 293 292 291 290 287 284 282 279 277 275 272 271 270 269 268 267 268 271 274 276 276 275 275 277 279 280 281 281 282 283 284 283 283 283 284 285 285 283 283 285 286 288 290 291 292 291 290 289 288 286 284
286 288 290 292 293 293 292 292 293 292 291 291 292 293 292 292 289 285 284 285 285 284 283 282 282 281 281 281 281 282 284 284 286 288 290 291 292 293 291 289 287 285 282 281 279 276 275 273 271 268 264 262 263 267 271 273 274 275 275 276 276 277 278 280 282 283 283 283 283 283 283 282 280 281 283 285 288 290 292 293 292 291 290 288 287 285
286 287 289 290 290 289 289 289 289 288 287 289 290 290 290 290 288 286 285 285 284 282 280 279 278 279 279 280 281 282 283 284 285 286 288 289 291 291 291 290 289 287 286 286 285 283 282 281 279 275 269 262 259 261 265 269 272 275 275 274 274 275 276 279 281 283 283 283 283 283 283 283 283 284 285 286 289 290 291 292 291 291 290 289 287 285
286 286 287 287 286 286 286 287 286 286 286 287 287 288 288 288 288 287 287 284 282 280 278 276 276 276 277 279 281 282 282 283 283 284 286 287 289 288 288 287 287 286 286 289 290 291 292 291 290 288 284 274 265 260 261 265 270 274 276 275 275 276 277 279 281 283 284 284 285 285 286 287 287 288 288 288 289 290 291 290 290 290 291 290 289 286